When you browse on this site, cookies collect data to enhance your experience and personalize the content and advertising you see.
Visit our Privacy Policy to learn more. By continuing to use the site, you agree to this use of cookies and data.
  • In Portugal
  • List of Countries
  • For 7 days
  • Water Temperature
  • Satellite Maps
  • Weather Map
  • Weather Widgets
  • user-avatar
    Login

    Hourly Weather Donets'k

    Today, 21 May, Tuesday

    Time Temperature Precipitation Wind Pressure Humidity
    00:00 +18°C° 0 mm 4 mps 748 mmHg 57%
    01:00 +17°C° 0 mm 3 mps 748 mmHg 60%
    02:00 +16°C° 0 mm 3 mps 748 mmHg 62%
    03:00 +16°C° 0 mm 3 mps 748 mmHg 65%
    04:00 +16°C° 0 mm 3 mps 749 mmHg 65%
    05:00 +16°C° 0 mm 3 mps 749 mmHg 65%
    06:00 +14°C° 0 mm 3 mps 749 mmHg 65%
    07:00 +17°C° 0 mm 4 mps 749 mmHg 59%
    08:00 +19°C° 0 mm 5 mps 749 mmHg 52%
    09:00 +21°C° 0 mm 5 mps 749 mmHg 46%
    10:00 +22°C° 0 mm 6 mps 749 mmHg 44%
    11:00 +23°C° 0 mm 6 mps 749 mmHg 42%
    12:00 +24°C° 0 mm 6 mps 749 mmHg 40%
    13:00 +24°C° 0 mm 6 mps 748 mmHg 41%
    14:00 +25°C° 0 mm 5 mps 748 mmHg 42%
    15:00 +25°C° 0 mm 5 mps 748 mmHg 43%
    16:00 +25°C° 0 mm 5 mps 748 mmHg 45%
    17:00 +25°C° 0 mm 4 mps 747 mmHg 48%
    18:00 +25°C° 0 mm 4 mps 747 mmHg 50%
    19:00 +22°C° 0 mm 4 mps 747 mmHg 52%
    20:00 +21°C° 0 mm 4 mps 747 mmHg 55%
    21:00 +20°C° 0 mm 4 mps 747 mmHg 57%
    22:00 +20°C° 0 mm 4 mps 747 mmHg 56%
    23:00 +19°C° 0 mm 4 mps 747 mmHg 55%

    Tomorrow, 22 May, Wednesday

    Time Temperature Precipitation Wind Pressure Humidity
    00:00 +19°C° 0 mm 5 mps 747 mmHg 54%
    01:00 +19°C° 0 mm 5 mps 746 mmHg 55%
    02:00 +17°C° 0 mm 5 mps 746 mmHg 56%
    03:00 +17°C° 0 mm 5 mps 746 mmHg 57%
    04:00 +16°C° 0 mm 5 mps 745 mmHg 59%
    05:00 +16°C° 0 mm 5 mps 745 mmHg 62%
    06:00 +15°C° 0 mm 4 mps 745 mmHg 65%
    07:00 +16°C° 0 mm 5 mps 745 mmHg 61%
    08:00 +16°C° 0 mm 5 mps 745 mmHg 58%
    09:00 +17°C° 0 mm 5 mps 745 mmHg 54%
    10:00 +19°C° 0 mm 5 mps 745 mmHg 52%
    11:00 +19°C° 0 mm 5 mps 744 mmHg 49%
    12:00 +20°C° 0 mm 5 mps 744 mmHg 47%
    13:00 +21°C° 0 mm 5 mps 744 mmHg 47%
    14:00 +21°C° 0 mm 5 mps 744 mmHg 47%
    15:00 +21°C° 0 mm 5 mps 743 mmHg 48%
    16:00 +21°C° 0 mm 4 mps 743 mmHg 51%
    17:00 +20°C° 0 mm 4 mps 743 mmHg 55%
    18:00 +20°C° 0 mm 3 mps 743 mmHg 59%
    19:00 +19°C° 0 mm 3 mps 743 mmHg 62%
    20:00 +18°C° 0 mm 2 mps 743 mmHg 66%
    21:00 +18°C° 0 mm 1 mps 743 mmHg 70%
    22:00 +18°C° 0 mm 1 mps 742 mmHg 72%
    23:00 +18°C° 0 mm 1 mps 742 mmHg 74%

    Day after tomorrow, 23 May, Thursday

    Time Temperature Precipitation Wind Pressure Humidity
    00:00 +15°C° 0 mm 0 mps 742 mmHg 75%
    01:00 +16°C° 0 mm 1 mps 742 mmHg 78%
    02:00 +16°C° 0 mm 1 mps 742 mmHg 81%
    03:00 +15°C° 0 mm 1 mps 742 mmHg 83%
    04:00 +15°C° 0.1 mm 2 mps 742 mmHg 84%
    05:00 +15°C° 0.1 mm 2 mps 742 mmHg 84%
    06:00 +15°C° 0.1 mm 2 mps 742 mmHg 85%
    07:00 +16°C° 0 mm 2 mps 742 mmHg 79%
    08:00 +17°C° 0 mm 2 mps 742 mmHg 73%
    09:00 +18°C° 0 mm 2 mps 743 mmHg 67%
    10:00 +20°C° 0 mm 2 mps 743 mmHg 61%
    11:00 +21°C° 0 mm 2 mps 743 mmHg 55%
    12:00 +24°C° 0 mm 2 mps 743 mmHg 49%
    13:00 +24°C° 0 mm 2 mps 743 mmHg 46%
    14:00 +25°C° 0 mm 2 mps 743 mmHg 43%
    15:00 +26°C° 0 mm 2 mps 743 mmHg 40%
    16:00 +26°C° 0 mm 2 mps 743 mmHg 42%
    17:00 +25°C° 0 mm 2 mps 742 mmHg 44%
    18:00 +25°C° 0 mm 3 mps 742 mmHg 46%
    19:00 +24°C° 0.1 mm 2 mps 743 mmHg 53%
    20:00 +21°C° 0.1 mm 2 mps 743 mmHg 61%
    21:00 +20°C° 0.1 mm 2 mps 743 mmHg 68%
    22:00 +19°C° 0 mm 2 mps 743 mmHg 70%
    23:00 +20°C° 0 mm 1 mps 743 mmHg 73%

    24 May, Friday

    Time Temperature Precipitation Wind Pressure Humidity
    00:00 +19°C° 0 mm 1 mps 743 mmHg 76%
    01:00 +19°C° 0 mm 1 mps 743 mmHg 77%
    02:00 +17°C° 0 mm 2 mps 743 mmHg 79%
    03:00 +17°C° 0 mm 2 mps 743 mmHg 80%
    04:00 +17°C° 0 mm 2 mps 743 mmHg 80%
    05:00 +17°C° 0 mm 2 mps 743 mmHg 81%
    06:00 +17°C° 0 mm 2 mps 743 mmHg 81%
    07:00 +19°C° 0 mm 2 mps 743 mmHg 73%
    08:00 +21°C° 0 mm 2 mps 743 mmHg 65%
    09:00 +24°C° 0 mm 2 mps 743 mmHg 57%
    10:00 +25°C° 0 mm 3 mps 743 mmHg 53%
    11:00 +26°C° 0 mm 3 mps 743 mmHg 49%
    12:00 +27°C° 0 mm 4 mps 743 mmHg 45%
    13:00 +27°C° 0 mm 4 mps 743 mmHg 46%
    14:00 +27°C° 0 mm 4 mps 743 mmHg 47%
    15:00 +27°C° 0 mm 5 mps 743 mmHg 48%
    16:00 +26°C° 0.1 mm 4 mps 742 mmHg 50%
    17:00 +26°C° 0.1 mm 4 mps 742 mmHg 53%
    18:00 +25°C° 0.1 mm 4 mps 742 mmHg 55%
    19:00 +23°C° 0 mm 4 mps 742 mmHg 59%
    20:00 +21°C° 0 mm 3 mps 742 mmHg 63%
    21:00 +19°C° 0 mm 3 mps 742 mmHg 67%
    22:00 +19°C° 0 mm 2 mps 742 mmHg 67%
    23:00 +18°C° 0 mm 2 mps 742 mmHg 67%

    25 May, Saturday

    Time Temperature Precipitation Wind Pressure Humidity
    00:00 +18°C° 0 mm 1 mps 742 mmHg 67%
    01:00 +17°C° 0 mm 2 mps 741 mmHg 65%
    02:00 +17°C° 0 mm 2 mps 741 mmHg 64%
    03:00 +17°C° 0 mm 2 mps 741 mmHg 63%
    04:00 +17°C° 0 mm 2 mps 741 mmHg 66%
    05:00 +18°C° 0 mm 2 mps 740 mmHg 70%
    06:00 +18°C° 0 mm 3 mps 740 mmHg 74%
    07:00 +20°C° 0.1 mm 3 mps 740 mmHg 70%
    08:00 +21°C° 0.1 mm 4 mps 740 mmHg 66%
    09:00 +23°C° 0.1 mm 5 mps 740 mmHg 63%
    10:00 +23°C° 1.5 mm 5 mps 740 mmHg 61%
    11:00 +25°C° 1.5 mm 5 mps 740 mmHg 59%
    12:00 +24°C° 1.5 mm 6 mps 739 mmHg 58%
    13:00 +24°C° 0.4 mm 6 mps 739 mmHg 61%
    14:00 +23°C° 0.4 mm 6 mps 739 mmHg 63%
    15:00 +22°C° 0.4 mm 6 mps 738 mmHg 66%
    16:00 +22°C° 0.1 mm 4 mps 738 mmHg 66%
    17:00 +22°C° 0.1 mm 3 mps 738 mmHg 67%
    18:00 +23°C° 0.1 mm 2 mps 737 mmHg 67%
    19:00 +21°C° 0.7 mm 2 mps 737 mmHg 70%
    20:00 +21°C° 0.7 mm 1 mps 737 mmHg 73%
    21:00 +21°C° 0.7 mm 1 mps 737 mmHg 76%
    22:00 +20°C° 1.2 mm 1 mps 737 mmHg 79%
    23:00 +19°C° 1.2 mm 2 mps 737 mmHg 82%

    26 May, Sunday

    Time Temperature Precipitation Wind Pressure Humidity
    00:00 +18°C° 1.2 mm 2 mps 737 mmHg 85%
    01:00 +18°C° 0.1 mm 3 mps 737 mmHg 86%
    02:00 +17°C° 0.1 mm 3 mps 737 mmHg 88%
    03:00 +17°C° 0.1 mm 3 mps 737 mmHg 89%
    04:00 +17°C° 0 mm 4 mps 737 mmHg 90%
    05:00 +17°C° 0 mm 4 mps 738 mmHg 91%
    06:00 +17°C° 0 mm 4 mps 738 mmHg 91%
    07:00 +18°C° 0.5 mm 4 mps 738 mmHg 87%
    08:00 +19°C° 0.5 mm 3 mps 738 mmHg 82%
    09:00 +20°C° 0.5 mm 3 mps 739 mmHg 77%
    10:00 +21°C° 1.1 mm 4 mps 739 mmHg 73%
    11:00 +22°C° 1.1 mm 4 mps 739 mmHg 69%
    12:00 +23°C° 1.1 mm 5 mps 740 mmHg 65%
    13:00 +23°C° 0.7 mm 5 mps 740 mmHg 63%
    14:00 +25°C° 0.7 mm 5 mps 740 mmHg 61%
    15:00 +25°C° 0.7 mm 5 mps 740 mmHg 60%
    16:00 +25°C° 0 mm 5 mps 741 mmHg 60%
    17:00 +25°C° 0 mm 5 mps 741 mmHg 60%
    18:00 +25°C° 0 mm 4 mps 741 mmHg 60%
    19:00 +22°C° 0 mm 4 mps 742 mmHg 65%
    20:00 +21°C° 0 mm 3 mps 742 mmHg 70%
    21:00 +20°C° 0 mm 2 mps 742 mmHg 74%
    22:00 +19°C° 0 mm 2 mps 742 mmHg 77%
    23:00 +18°C° 0 mm 2 mps 743 mmHg 79%
    Show more